Date String (YYYY-MM-DD hh:mm:ss) UTC,Instrument flags,Ambient pressure (hPa),Sample flow (lpm),Bypass flow (lpm),Sample temperature (°C),Ambient temperature (°C),ASC tube jacket temperature (°C),LED temperature (°C),Box temperature (°C),Sample RH (%),Span deviation,Mass concentration (μg/m³),Mass concentration (μg/m³),Mass concentration (μg/m³)
DateTimeUTC,F1_M11,P_M11,Q1_M11,Q2_M11,T1_M11,T2_M11,T3_M11,T4_M11,T5_M11,U1_M11,ZSPAN_M11,X2_M11,X0_M11,X1_M11
2022-04-18 19:00:00,,0830.9,5.01,0.00,25.2,24.6,00.0,34.0,27.0,10.9,0000.0,0005.15,0012.76,0003.80
2022-04-18 19:01:00,,0830.8,5.00,0.00,25.2,24.6,00.0,34.0,27.1,11.0,0000.0,0005.25,0012.83,0003.85
2022-04-18 19:02:00,,0830.8,5.01,0.00,25.2,24.6,00.0,34.0,27.1,10.9,0000.0,0005.39,0012.94,0003.90
2022-04-18 19:03:00,,0830.9,5.00,0.00,25.2,24.6,00.0,34.1,27.1,10.9,0000.0,0005.47,0013.29,0003.93
2022-04-18 19:04:00,,0830.7,4.99,0.00,25.2,24.6,00.0,34.1,27.1,10.9,0000.0,0005.49,0013.38,0003.95
2022-04-18 19:05:00,,0830.7,5.00,0.00,25.3,24.7,00.0,34.1,27.1,10.9,0000.0,0005.55,0014.20,0003.95
2022-04-18 19:06:00,,0830.7,5.00,0.00,25.3,24.7,00.0,34.1,27.2,10.9,0000.0,0005.53,0014.05,0003.97
2022-04-18 19:07:00,,0830.8,5.00,0.00,25.3,24.7,00.0,34.1,27.1,10.9,0000.0,0005.53,0013.69,0004.00
2022-04-18 19:08:00,,0830.7,5.00,0.00,25.3,24.7,00.0,34.1,27.2,10.9,0000.0,0005.58,0014.38,0004.02
2022-04-18 19:09:00,,0830.7,5.00,0.00,25.3,24.7,00.0,34.1,27.2,11.0,0000.0,0005.64,0015.25,0004.04
2022-04-18 19:10:00,,0830.7,5.00,0.00,25.4,24.7,00.0,34.2,27.2,11.0,0000.0,0005.62,0015.83,0004.05
2022-04-18 19:11:00,,0830.7,5.00,0.00,25.4,24.8,00.0,34.2,27.3,11.0,0000.0,0005.63,0015.88,0004.04
2022-04-18 19:12:00,,0830.6,5.00,0.00,25.4,24.8,00.0,34.2,27.3,10.9,0000.0,0005.63,0015.40,0004.03
2022-04-18 19:13:00,,0830.6,5.01,0.00,25.4,24.8,00.0,34.2,27.3,10.9,0000.0,0005.56,0015.64,0004.01
2022-04-18 19:14:00,,0830.5,4.98,0.00,25.5,24.9,00.0,34.2,27.4,11.0,0000.0,0005.54,0016.38,0004.02
2022-04-18 19:15:00,,0830.6,5.00,0.00,25.5,24.9,00.0,34.3,27.4,10.9,0000.0,0005.58,0016.70,0004.04
2022-04-18 19:16:00,,0830.6,5.01,0.00,25.5,24.9,00.0,34.3,27.4,10.9,0000.0,0005.64,0016.18,0004.06
2022-04-18 19:17:00,,0830.5,4.99,0.00,25.5,24.9,00.0,34.3,27.4,10.9,0000.0,0005.72,0016.34,0004.08
2022-04-18 19:18:00,,0830.5,5.00,0.00,25.5,24.9,00.0,34.3,27.4,10.9,0000.0,0005.72,0016.49,0004.08
2022-04-18 19:19:00,,0830.5,5.00,0.00,25.6,24.9,00.0,34.3,27.5,10.9,0000.0,0005.69,0015.78,0004.09
2022-04-18 19:20:00,,0830.5,5.01,0.00,25.6,25.0,00.0,34.3,27.5,10.9,0000.0,0005.68,0014.64,0004.11
2022-04-18 19:21:00,,0830.4,5.01,0.00,25.6,25.0,00.0,34.3,27.5,11.0,0000.0,0005.74,0014.92,0004.13
2022-04-18 19:22:00,,0830.4,4.99,0.00,25.6,25.0,00.0,34.4,27.4,11.0,0000.0,0005.75,0015.50,0004.17
2022-04-18 19:23:00,,0830.4,5.01,0.00,25.6,25.0,00.0,34.4,27.4,11.0,0000.0,0005.78,0016.08,0004.20
2022-04-18 19:24:00,,0830.3,5.00,0.00,25.5,24.9,00.0,34.4,27.3,11.0,0000.0,0005.87,0016.38,0004.25
2022-04-18 19:25:00,,0830.3,5.00,0.00,25.5,24.8,00.0,34.4,27.3,11.1,0000.0,0005.90,0015.44,0004.28
2022-04-18 19:26:00,,0830.4,5.00,0.00,25.5,24.7,00.0,34.4,27.3,11.1,0000.0,0005.86,0014.63,0004.30
2022-04-18 19:27:00,,0830.3,5.00,0.00,25.5,24.7,00.0,34.4,27.3,11.1,0000.0,0005.87,0014.75,0004.32
2022-04-18 19:28:00,,0830.2,4.99,0.00,25.4,24.7,00.0,34.4,27.2,11.2,0000.0,0005.84,0014.90,0004.33
2022-04-18 19:29:00,,0830.3,5.00,0.00,25.4,24.7,00.0,34.4,27.2,11.2,0000.0,0005.78,0015.26,0004.33
2022-04-18 19:30:00,,0830.2,5.00,0.00,25.4,24.7,00.0,34.4,27.2,11.2,0000.0,0005.82,0015.13,0004.35
2022-04-18 19:31:00,,0830.2,4.99,0.00,25.4,24.7,00.0,34.4,27.2,11.2,0000.0,0005.83,0015.55,0004.36
2022-04-18 19:32:00,,0830.2,5.00,0.00,25.5,24.7,00.0,34.4,27.3,11.2,0000.0,0005.78,0015.10,0004.35
2022-04-18 19:33:00,,0830.2,5.00,0.00,25.5,24.7,00.0,34.4,27.3,11.2,0000.0,0005.77,0014.27,0004.33
2022-04-18 19:34:00,,0830.1,5.00,0.00,25.5,24.8,00.0,34.4,27.3,11.1,0000.0,0005.81,0014.73,0004.32
2022-04-18 19:35:00,,0830.1,5.01,0.00,25.5,24.8,00.0,34.4,27.4,11.0,0000.0,0005.77,0014.09,0004.31
2022-04-18 19:36:00,,0830.2,5.01,0.00,25.5,24.8,00.0,34.4,27.4,10.9,0000.0,0005.76,0014.07,0004.30
2022-04-18 19:37:00,,0830.2,5.00,0.00,25.5,24.9,00.0,34.4,27.4,10.9,0000.0,0005.80,0014.23,0004.28
2022-04-18 19:38:00,,0830.1,4.99,0.00,25.5,24.9,00.0,34.4,27.4,11.0,0000.0,0005.81,0014.47,0004.28
2022-04-18 19:39:00,,0830.1,5.00,0.00,25.5,24.8,00.0,34.4,27.3,11.0,0000.0,0005.86,0014.60,0004.30
2022-04-18 19:40:00,,0830.1,5.00,0.00,25.5,24.8,00.0,34.4,27.3,11.0,0000.0,0006.02,0014.53,0004.34
2022-04-18 19:41:00,,0830.1,4.99,0.00,25.5,24.8,00.0,34.4,27.3,11.0,0000.0,0006.12,0014.90,0004.38
2022-04-18 19:42:00,,0830.1,5.00,0.00,25.5,24.8,00.0,34.4,27.3,11.0,0000.0,0006.16,0014.65,0004.42
2022-04-18 19:43:00,,0830.0,5.01,0.00,25.5,24.8,00.0,34.4,27.4,11.1,0000.0,0006.26,0014.88,0004.46
2022-04-18 19:44:00,,0830.1,5.01,0.00,25.5,24.9,00.0,34.4,27.4,11.1,0000.0,0006.27,0016.27,0004.49
2022-04-18 19:45:00,,0830.0,5.01,0.00,25.6,24.9,00.0,34.5,27.4,11.1,0000.0,0006.24,0015.56,0004.52
2022-04-18 19:46:00,,0830.1,5.00,0.00,25.6,24.9,00.0,34.5,27.4,11.0,0000.0,0006.26,0015.63,0004.53
2022-04-18 19:47:00,,0830.1,5.00,0.00,25.6,24.9,00.0,34.5,27.4,11.0,0000.0,0006.32,0015.86,0004.57
2022-04-18 19:48:00,,0830.0,4.98,0.00,25.6,24.9,00.0,34.5,27.5,11.1,0000.0,0006.35,0015.83,0004.60
2022-04-18 19:49:00,,0830.1,5.00,0.00,25.6,24.9,00.0,34.5,27.5,11.0,0000.0,0006.36,0015.88,0004.63
2022-04-18 19:50:00,,0830.0,4.99,0.00,25.6,25.0,00.0,34.5,27.5,11.0,0000.0,0006.37,0016.35,0004.66
2022-04-18 19:51:00,,0830.0,5.00,0.00,25.7,25.0,00.0,34.5,27.5,11.1,0000.0,0006.39,0017.26,0004.66
2022-04-18 19:52:00,,0829.8,5.02,0.00,25.7,25.0,00.0,34.5,27.5,11.0,0000.0,0006.41,0017.23,0004.67
2022-04-18 19:53:00,,0829.8,5.00,0.00,25.7,25.0,00.0,34.5,27.6,11.0,0000.0,0006.48,0017.46,0004.66
2022-04-18 19:54:00,,0829.8,5.00,0.00,25.7,25.0,00.0,34.5,27.6,11.0,0000.0,0006.46,0017.70,0004.66
2022-04-18 19:55:00,,0829.8,5.00,0.00,25.7,25.1,00.0,34.6,27.6,10.9,0000.0,0006.52,0016.93,0004.69
2022-04-18 19:56:00,,0829.8,5.00,0.00,25.8,25.1,00.0,34.6,27.7,10.9,0000.0,0006.60,0016.59,0004.73
2022-04-18 19:57:00,,0829.8,5.00,0.00,25.8,25.1,00.0,34.6,27.7,10.8,0000.0,0006.62,0016.62,0004.77
2022-04-18 19:58:00,,0829.8,4.99,0.00,25.8,25.1,00.0,34.6,27.7,10.8,0000.0,0006.64,0016.47,0004.80
2022-04-18 19:59:00,,0829.7,5.00,0.00,25.8,25.2,00.0,34.6,27.7,10.8,0000.0,0006.66,0016.73,0004.83
